CW0498 Weather Reports


Display with metric or nautical units.
time (UTC)temp
F
wind
direction
speed
MPH
gust
MPH
rain 1hr
in
rain 24hr
in
rain mn
in
humidity
%
barometer
mb
20260903050047 76 0 0.0 0.0 0.00 0.00 0.00 96 1018.4
20260903044548 76 0 0.0 0.0 0.00 0.00 0.00 95 1018.4
20260903043046 76 0 0.0 0.0 0.00 0.00 0.00 95 1018.4
20260903041545 76 0 0.0 0.0 0.00 0.00 0.00 94 1018.6
20260903040058 77 0 0.0 0.0 0.00 0.00 0.00 94 1018.5
20260903034548 77 0 0.0 0.0 0.00 0.00 0.00 95 1018.4
20260903033056 77 0 0.0 0.0 0.00 0.00 0.00 94 1018.5
20260903031553 77 0 0.0 0.0 0.00 0.00 0.00 94 1018.5
20260903030052 78 0 0.0 0.0 0.00 0.00 0.00 95 1018.5
20260903024555 78 0 0.0 0.0 0.00 0.00 0.00 94 1018.5
20260903023050 78 0 0.0 0.0 0.00 0.00 0.00 94 1018.5
20260903021553 78 0 0.0 0.0 0.00 0.00 0.00 93 1018.5
20260903020050 79 0 0.0 0.0 0.00 0.00 0.00 92 1018.5
20260903014615 79 0 0.0 0.0 0.00 0.00 0.00 91 1018.5
20260903013045 79 0 0.0 0.0 0.00 0.00 0.00 90 1018.3
20260903011601 80 0 0.0 0.0 0.00 0.00 0.00 91 1018.0
20260903010051 80 0 0.0 0.0 0.00 0.00 0.00 90 1017.8
20260903004548 81 0 0.0 0.0 0.00 0.00 0.00 89 1017.7
20260903003048 81 0 0.0 2.0 0.00 0.00 0.00 88 1017.6
20260903001549 82 0 0.0 0.0 0.00 0.00 0.00 86 1017.4
20260903000100 83 0 0.0 0.0 0.00 0.00 0.00 84 1017.3
20260902234600 84 0 0.0 0.0 0.00 0.00 0.00 83 1017.4
20260902233055 85 0 0.0 0.0 0.00 0.00 0.00 81 1017.4
20260902231559 85 0 0.0 0.0 0.00 0.00 0.00 80 1017.6
20260902230105 86 0 0.0 0.0 0.00 0.00 0.00 78 1017.5
20260902224604 86 0 0.0 0.0 0.00 0.00 0.00 77 1017.5
20260902223046 87 0 0.0 0.0 0.00 0.00 0.00 76 1017.4
20260902221556 87 0 0.0 0.0 0.00 0.00 0.00 77 1017.5
20260902220059 87 0 0.0 0.0 0.00 0.00 0.00 75 1017.7
20260902214600 88 0 0.0 0.0 0.00 0.00 0.00 73 1017.8
20260902213054 89 0 0.0 0.0 0.00 0.00 0.00 71 1017.9
20260902211543 91 0 0.0 0.0 0.00 0.00 0.00 67 1017.9
20260902210047 92 0 0.0 0.0 0.00 0.00 0.00 67 1018.0
20260902204546 94 0 0.0 1.0 0.00 0.00 0.00 59 1018.0
20260902203055 94 276 0.0 1.0 0.00 0.00 0.00 58 1018.2
20260902201551 93 0 0.0 5.0 0.00 0.00 0.00 62 1018.3
20260902200056 95 42 0.0 1.0 0.00 0.00 0.00 61 1018.5
20260902194554 94 0 0.0 1.0 0.00 0.00 0.00 62 1018.7
20260902193049 94 298 0.0 1.0 0.00 0.00 0.00 65 1019.0
20260902191557 94 0 0.0 2.0 0.00 0.00 0.00 61 1019.1
20260902190046 92 0 0.0 1.0 0.00 0.00 0.00 63 1019.3
20260902184548 89 0 0.0 0.0 0.00 0.00 0.00 75 1019.3
20260902183107 90 0 0.0 0.0 0.00 0.00 0.00 72 1019.5
20260902181556 91 0 0.0 0.0 0.00 0.00 0.00 67 1019.7
20260902180051 89 255 0.0 1.0 0.00 0.00 0.00 69 1019.7
20260902174601 90 319 1.0 3.0 0.00 0.00 0.00 66 1019.8
20260902173124 90 0 0.0 2.0 0.00 0.00 0.00 69 1020.0
20260902171606 90 275 0.0 1.0 0.00 0.00 0.00 69 1020.2
20260902170051 89 0 0.0 2.0 0.00 0.00 0.00 69 1020.5
20260902164558 88 0 0.0 1.0 0.00 0.00 0.00 71 1020.8
20260902163051 87 0 0.0 1.0 0.00 0.00 0.00 76 1020.8
20260902161559 87 176 0.0 1.0 0.00 0.00 0.00 75 1021.0
20260902160059 86 0 0.0 1.0 0.00 0.00 0.00 75 1021.1
20260902154552 85 0 0.0 2.0 0.00 0.00 0.00 74 1021.2
20260902153100 85 0 0.0 1.0 0.00 0.00 0.00 77 1021.1
20260902151545 84 0 0.0 2.0 0.00 0.00 0.00 80 1021.2
20260902150055 83 0 0.0 1.0 0.00 0.00 0.00 80 1021.3
20260902144554 83 0 0.0 2.0 0.00 0.00 0.00 80 1021.3
20260902143044 81 0 0.0 3.0 0.00 0.00 0.00 83 1021.3
20260902141607 80 0 0.0 1.0 0.00 0.00 0.00 87 1021.0
20260902140050 78 0 0.0 1.0 0.00 0.00 0.00 92 1020.9
20260902134549 76 0 0.0 0.0 0.00 0.00 0.00 95 1021.0
20260902133059 75 0 0.0 0.0 0.00 0.00 0.00 97 1021.1
20260902131558 74 0 0.0 0.0 0.00 0.00 0.00 96 1021.0
20260902130051 74 0 0.0 0.0 0.00 0.00 0.00 96 1021.0
20260902124559 73 0 0.0 0.0 0.00 0.00 0.00 96 1020.8
20260902123109 72 0 0.0 0.0 0.00 0.00 0.00 96 1020.9
20260902121551 72 0 0.0 0.0 0.00 0.00 0.00 96 1020.7
20260902120043 71 0 0.0 0.0 0.00 0.00 0.00 96 1020.6
20260902114553 71 0 0.0 0.0 0.00 0.00 0.00 96 1020.4
20260902113049 71 0 0.0 0.0 0.00 0.00 0.00 96 1020.4
20260902111550 71 0 0.0 0.0 0.00 0.00 0.00 96 1020.1
20260902110053 71 0 0.0 0.0 0.00 0.00 0.00 96 1020.1
20260902104552 71 0 0.0 0.0 0.00 0.00 0.00 96 1020.0
20260902103049 72 0 0.0 0.0 0.00 0.00 0.00 96 1020.0
20260902101553 72 0 0.0 0.0 0.00 0.00 0.00 96 1019.7
20260902100046 72 0 0.0 0.0 0.00 0.00 0.00 96 1019.7
20260902094551 72 0 0.0 0.0 0.00 0.00 0.00 96 1019.7
20260902093045 72 0 0.0 0.0 0.00 0.00 0.00 96 1019.6
20260902091559 72 0 0.0 0.0 0.00 0.00 0.00 96 1019.5
20260902090050 72 0 0.0 0.0 0.00 0.00 0.00 96 1019.2
20260902084550 72 0 0.0 0.0 0.00 0.00 0.00 96 1019.0
20260902083044 72 0 0.0 0.0 0.00 0.00 0.00 96 1018.8
20260902081545 72 0 0.0 0.0 0.00 0.00 0.00 96 1018.9
20260902080051 72 0 0.0 0.0 0.00 0.00 0.00 96 1018.8
20260902074545 73 0 0.0 0.0 0.00 0.00 0.00 96 1018.8
20260902073056 73 0 0.0 0.0 0.00 0.00 0.00 96 1018.7
20260902071552 73 0 0.0 0.0 0.00 0.00 0.00 96 1018.8
20260902070052 73 0 0.0 0.0 0.00 0.00 0.00 96 1018.8
20260902064547 73 0 0.0 0.0 0.00 0.00 0.00 96 1018.9
20260902063102 73 0 0.0 0.0 0.00 0.00 0.00 96 1018.8
20260902061611 73 0 0.0 0.0 0.00 0.00 0.00 96 1019.0
20260902060047 73 0 0.0 0.0 0.00 0.00 0.00 96 1018.9
20260902054553 74 0 0.0 0.0 0.00 0.00 0.00 96 1019.2
20260902053047 74 0 0.0 0.0 0.00 0.00 0.00 96 1019.4
20260902051546 74 0 0.0 0.0 0.00 0.00 0.00 96 1019.2